Weather History for Ann Arbor, MI

Change the Weather History Date:

Tuesday, January 10, 2012

  Actual Average Record
Temperature  
Mean Temperature 37 °F -  
Max Temperature 46 °F 29 °F 46 °F (2012)
Min Temperature 27 °F 15 °F -4 °F (2004)
Degree Days  
Heating Degree Days 28    
Moisture  
Dew Point 30 °F    
Average Humidity 79    
Maximum Humidity 100    
Minimum Humidity 56    
Precipitation  
Precipitation 0.00 in - - ()
Sea Level Pressure  
Sea Level Pressure 29.97 in    
Wind  
Wind Speed 8 mph (WSW)    
Max Wind Speed 14 mph    
Max Gust Speed 21 mph    
Visibility 10 miles    
Events      
Averages and records for this station are not official NWS values.
T = Trace of Precipitation, MM = Missing Value Source: NWS Daily Summary

Daily Weather History Graph

Daily Weather History Graph

Search for Another Location

Airport:

Trip Planner

Search our weather history database for the weather conditions in past years. The results will help you decide how hot, cold, wet, or windy it might be!

Date:

Astronomy

Jan. 10, 2012 Rise Set
Actual Time 8:03 AM EST 5:21 PM EST
Civil Twilight 7:31 AM EST 5:53 PM EST
Nautical Twilight 6:56 AM EST 6:28 PM EST
Astronomical Twilight 6:23 AM EST 7:01 PM EST
Moon 7:15 PM EST (1/10) 8:38 AM EST (1/10)
Length of Visible Light 10h 21m
Length of Day
9h 18m
Full, 98% of the Moon is Illuminated
Jan 10
Full
Jan 16
Last Quarter
Jan 23
New
Jan 30
First Quarter
Feb 7
Full

Hourly Weather History & Observations

Time (EST) Temp. Windchill Dew Point Humidity Pressure Visibility Wind Dir Wind Speed Gust Speed Precip Events Conditions
12:53 AM 37.0 °F 28.5 °F 28.9 °F 73% 29.93 in 10.0 mi West 13.8 mph 20.7 mph N/A   Clear
1:53 AM 36.0 °F 27.5 °F 28.9 °F 76% 29.94 in 10.0 mi West 12.7 mph - N/A   Clear
2:53 AM 35.1 °F 27.4 °F 28.9 °F 78% 29.96 in 10.0 mi WNW 10.4 mph - N/A   Clear
3:53 AM 33.1 °F 25.5 °F 30.0 °F 89% 29.97 in 10.0 mi West 9.2 mph - N/A   Clear
4:53 AM 34.0 °F 27.2 °F 30.0 °F 85% 29.97 in 10.0 mi WNW 8.1 mph - N/A   Clear
5:53 AM 33.1 °F 26.9 °F 30.0 °F 89% 29.99 in 10.0 mi NW 6.9 mph - N/A   Clear
6:53 AM 32.0 °F 25.6 °F 30.0 °F 92% 30.01 in 10.0 mi WNW 6.9 mph - N/A   Clear
7:53 AM 30.0 °F - 30.0 °F 100% 30.04 in 9.0 mi Calm Calm - N/A   Clear
9:53 AM 37.0 °F 33.3 °F 32.0 °F 82% 30.05 in 10.0 mi West 4.6 mph - N/A   Clear
10:53 AM 41.0 °F - 32.0 °F 70% 30.05 in 10.0 mi Calm Calm - N/A   Clear
11:53 AM 43.0 °F 41.3 °F 30.0 °F 60% 30.02 in 10.0 mi Variable 3.5 mph - N/A   Clear
1:53 PM 46.0 °F 42.5 °F 33.1 °F 61% 29.99 in 10.0 mi SW 6.9 mph - N/A   Clear
2:53 PM 46.0 °F 43.1 °F 32.0 °F 58% 29.98 in 10.0 mi SW 5.8 mph - N/A   Clear
3:53 PM 46.0 °F 41.9 °F 30.9 °F 56% 29.96 in 10.0 mi SSW 8.1 mph - N/A   Clear
4:53 PM 44.1 °F 40.8 °F 30.9 °F 60% 29.96 in 10.0 mi SSW 5.8 mph - N/A   Clear
5:53 PM 39.0 °F 35.7 °F 32.0 °F 76% 29.96 in 10.0 mi South 4.6 mph - N/A   Clear
6:53 PM 37.9 °F 35.5 °F 30.9 °F 76% 29.97 in 10.0 mi SSW 3.5 mph - N/A   Clear
8:53 PM 28.9 °F 25.2 °F 27.0 °F 92% 29.96 in 10.0 mi SSW 3.5 mph - N/A   Clear
9:53 PM 33.1 °F 27.7 °F 30.9 °F 92% 29.93 in 10.0 mi SSW 5.8 mph - N/A   Clear
10:53 PM 28.9 °F - 28.0 °F 96% 29.92 in 10.0 mi Calm Calm - N/A   Clear
11:53 PM 27.0 °F 21.6 °F 26.1 °F 96% 29.90 in 7.0 mi SSW 4.6 mph - N/A   Clear